Retour au catalogue

STARLINK-4157

ActifCommunicationsVLEO
NORAD 53035·PAYLOAD·🇺🇸 United States

Lancé Jul 7, 2022 depuis Cape Canaveral Space Force Station

Loading…

Prochains Passages (prochaines 24 heures)

TLE

FraisSource: CelesTrak SupGP

Époque: Sep 15, 2026, 02:39 UTC

1 53035C 22076BB  26258.11090278  .00705090  00000+0  21168-1 0  2581
2 53035  53.1604 300.1030 0001289  92.0276 289.0325 15.33535160    12

Suivez STARLINK-4157 en temps réel avec AllMySat

Download on the App Store